This demonstration page uses our WeatherBlox Daily Observations layout. Learn more.

Left ArrowRight Arrow

39.51506, -84.39828

Hourly Observations for August 20, 2022

Temp ( °F °C ) Dew Point ( °F °C ) Humidity (%) Winds ( mph kmh ) Pressure ( in mb ) Visibility ( mi km ) Precip ( " mm )
12:15 am 00:15 Clear 64 17.9 64 18 N/A Calm 30.04 1017 10 16 0.00 0.00
12:35 am 00:35 Clear 64 17.6 N/A N/A Calm 30.04 1017 10 16 0.00 0.00
12:55 am 00:55 Clear 64 17.5 N/A N/A W 3 6 30.04 1017 10 16 0.00 0.00
1:15 am 01:15 Clear 64 17.7 64 17.6 99 99 Calm 30.05 1018 10 16 0.00 0.00
1:35 am 01:35 Clear 64 17.5 N/A N/A Calm 30.05 1018 10 16 0.00 0.00
1:55 am 01:55 Mostly Cloudy 63 17.1 N/A N/A Calm 30.05 1018 10 16 0.00 0.00
2:15 am 02:15 Partly Cloudy 64 17.5 N/A N/A Calm 30.04 1017 10 16 0.00 0.00
2:35 am 02:35 Clear 63 17.3 N/A N/A Calm 30.04 1017 10 16 0.00 0.00
2:55 am 02:55 Clear 62 16.6 N/A N/A Calm 30.04 1017 7 11 0.00 0.00
3:15 am 03:15 Clear 63 17 N/A N/A Calm 30.04 1017 10 16 0.00 0.00
3:35 am 03:35 Clear 62 16.6 N/A N/A Calm 30.04 1017 10 16 0.00 0.00
3:55 am 03:55 Hazy 62 16.7 N/A N/A Calm 30.04 1017 5 8 0.00 0.00
4:15 am 04:15 Partly Cloudy 61 16.3 N/A N/A Calm 30.04 1017 7 11 0.00 0.00
4:35 am 04:35 Partly Cloudy 62 16.5 N/A N/A Calm 30.04 1017 7 11 0.00 0.00
4:55 am 04:55 Partly Cloudy 62 16.6 N/A N/A Calm 30.04 1017 10 16 0.00 0.00
5:15 am 05:15 Clear 62 16.7 N/A N/A Calm 30.04 1017 7 11 0.00 0.00
5:35 am 05:35 Clear 62 16.4 N/A N/A Calm 30.05 1018 10 16 0.00 0.00
5:55 am 05:55 Clear 61 16 N/A N/A Calm 30.05 1018 7 11 0.00 0.00
6:15 am 06:15 Clear 61 16 N/A N/A Calm 30.05 1018 7 11 0.00 0.00
6:35 am 06:35 Clear 61 16.2 N/A N/A Calm 30.05 1018 7 11 0.00 0.00
6:55 am 06:55 Sunny with Mist and Fog 60 15.6 N/A N/A Calm 30.05 1018 4 6 0.00 0.00
7:15 am 07:15 Sunny with Mist and Fog 61 16.2 N/A N/A Calm 30.06 1018 3 5 0.00 0.00
7:35 am 07:35 Hazy 63 17.2 N/A N/A Calm 30.06 1018 5 8 0.00 0.00
7:55 am 07:55 Sunny 65 18.1 N/A N/A Calm 30.06 1018 7 11 0.00 0.00
8:15 am 08:15 Partly Cloudy 66 19.1 66 18.9 99 99 Calm 30.06 1018 10 16 0.00 0.00
8:35 am 08:35 Partly Cloudy 69 20.3 66 18.8 91 91 Calm 30.06 1018 10 16 0.00 0.00
8:55 am 08:55 Sunny 70 21.2 67 19.3 89 89 Calm 30.07 1018 10 16 0.00 0.00
9:15 am 09:15 Sunny 72 22 67 19.7 87 87 Calm 30.07 1018 10 16 0.00 0.00
9:35 am 09:35 Partly Cloudy 73 22.6 67 19.6 83 83 SW 3 6 30.08 1019 10 16 0.00 0.00
9:55 am 09:55 Mostly Cloudy 73 23 68 19.8 82 82 Calm 30.07 1018 10 16 0.00 0.00
10:15 am 10:15 Mostly Cloudy 75 23.9 67 19.7 77 77 SSW 5 7 30.06 1018 10 16 0.00 0.00
10:35 am 10:35 Mostly Cloudy 76 24.3 67 19.6 75 75 SSW 8 13 30.08 1018 10 16 0.00 0.00
10:55 am 10:55 Mostly Cloudy 76 24.7 68 20.2 76 76 S 6 9 30.07 1018 10 16 0.00 0.00
11:15 am 11:15 Mostly Cloudy 78 25.6 68 20.2 72 72 S 7 11 30.06 1018 10 16 0.00 0.00
11:35 am 11:35 Sunny 80 26.8 69 20.4 68 68 S 6 9 30.06 1018 10 16 0.00 0.00
11:55 am 11:55 Sunny 81 27.2 69 20.6 67 67 SSE 7 11 30.06 1018 10 16 0.00 0.00
12:15 pm 12:15 Partly Cloudy 80 26.9 69 20.3 67 67 S 6 9 30.05 1018 10 16 0.00 0.00
12:35 pm 12:35 Mostly Cloudy 82 27.6 69 20.3 65 65 S 10 17 30.05 1018 10 16 0.00 0.00
12:55 pm 12:55 Cloudy 81 27 68 19.8 65 65 SSW 9 15 30.05 1018 10 16 0.00 0.00
1:15 pm 13:15 Cloudy 82 27.7 69 20.4 65 65 SSW 7 11 30.04 1017 10 16 0.00 0.00
1:35 pm 13:35 Mostly Cloudy 81 27.1 68 19.9 65 65 S 10 17 30.03 1017 10 16 0.00 0.00
1:55 pm 13:55 Mostly Cloudy 83 28.4 69 20.7 63 63 S 6 9 30.02 1017 10 16 0.00 0.00
2:15 pm 14:15 Cloudy 82 27.7 69 20.3 64 64 S 8 13 30.01 1016 10 16 0.00 0.00
2:35 pm 14:35 Mostly Cloudy 83 28.4 67 19.7 59 59 SW 5 7 30.00 1016 10 16 0.00 0.00
2:55 pm 14:55 Partly Cloudy 82 27.5 67 19.2 61 61 S 8 13 29.99 1016 10 16 0.00 0.00
3:15 pm 15:15 Partly Cloudy with Thunderstorms 80 26.8 67 19.2 63 63 SW 7 11 30.00 1016 10 16 0.00 0.00
3:30 pm 15:30 Partly Cloudy with Thunderstorms 79 26.2 68 20.1 69 69 S 5 7 30.01 1016 7 11 0.00 0.00
3:55 pm 15:55 Mostly Cloudy 82 27.7 66 18.8 58 58 SW 8 13 30.00 1016 10 16 0.00 0.00
4:15 pm 16:15 Sunny 81 27 70 21 70 70 WSW 9 15 30.00 1016 10 16 0.00 0.00
4:35 pm 16:35 Sunny with Nearby Thunderstorms 83 28.1 69 20.7 64 64 SW 10 17 30.00 1016 10 16 0.00 0.00
4:55 pm 16:55 Sunny with Nearby Thunderstorms 81 27 66 18.9 61 61 SSW 12 19 30.00 1016 10 16 0.00 0.00
5:15 pm 17:15 Sunny 82 27.9 66 18.9 58 58 S 7 11 29.99 1015 10 16 0.00 0.00
5:35 pm 17:35 Sunny 79 26.2 66 19 65 65 SW 6 9 29.99 1016 10 16 0.00 0.00
5:55 pm 17:55 Sunny 79 26 68 19.8 69 69 SW 6 9 29.98 1015 10 16 0.00 0.00
6:15 pm 18:15 Sunny 78 25.8 68 20 70 70 WSW 5 7 29.97 1015 10 16 0.00 0.00
6:35 pm 18:35 Sunny 79 25.9 69 20.7 73 73 Calm 29.97 1015 10 16 0.00 0.00
6:55 pm 18:55 Sunny 78 25.8 69 20.8 74 74 Calm 29.98 1015 10 16 0.00 0.00
7:15 pm 19:15 Sunny 78 25.7 70 20.9 75 75 SW 6 9 29.98 1015 10 16 0.00 0.00
7:35 pm 19:35 Partly Cloudy 79 25.9 71 21.6 77 77 SE 7 11 29.98 1015 10 16 0.00 0.00
7:55 pm 19:55 Partly Cloudy 78 25.4 71 21.6 80 80 SE 6 9 29.98 1015 10 16 0.00 0.00
8:15 pm 20:15 Partly Cloudy 76 24.5 71 21.4 83 83 ESE 9 15 29.98 1015 10 16 0.00 0.00
8:35 pm 20:35 Partly Cloudy 75 24 71 21.4 85 85 S 6 9 29.98 1015 10 16 0.00 0.00
8:55 pm 20:55 Mostly Cloudy 76 24.2 68 20 77 77 S 6 9 29.98 1015 10 16 0.00 0.00
9:15 pm 21:15 Partly Cloudy 74 23.3 66 18.7 75 75 S 7 11 30.00 1016 10 16 0.00 0.00
9:35 pm 21:35 Partly Cloudy 73 22.9 64 17.7 73 73 S 7 11 30.00 1016 10 16 0.00 0.00
9:55 pm 21:55 Clear 74 23.1 63 17.1 69 69 ESE 7 11 30.00 1016 10 16 0.00 0.00
10:15 pm 22:15 Clear 73 22.7 66 18.7 78 78 SE 7 11 30.01 1016 10 16 0.00 0.00
10:35 pm 22:35 Clear with Nearby Thunderstorms 72 22.3 70 21.3 94 94 SE 8 13 30.01 1016 10 16 0.00 0.00
10:55 pm 22:55 Partly Cloudy 72 22 70 21.2 95 95 SE 6 9 30.02 1017 10 16 0.00 0.00
11:15 pm 23:15 Mostly Cloudy 72 22.1 70 21.1 94 94 SSE 5 7 30.02 1017 10 16 0.00 0.00
11:35 pm 23:35 Mostly Cloudy 72 22 70 21 94 94 S 3 6 30.01 1016 10 16 0.00 0.00
11:55 pm 23:55 Partly Cloudy 70 21.3 70 21.1 99 99 S 8 13 30.00 1016 10 16 0.00 0.00

Powered by AerisWeather